IRIDIUM 33 DEB

Satellite information

Favourite Embed

Satellite Type and Status

DEBRISIN ORBIT

Key statistics

Satellite IRIDIUM 33 DEB at a glance.

Uptime

10158

Days in orbit

Revolutions

≈ 14.9

Per day

Orbit

LEO

Low Earth Orbit

Inclination

86.4

Latest

Satellite identification and parameters

Extended collection of information and parameters for IRIDIUM 33 DEB.

Object identification

Identified? True

Debris? True

Object name: IRIDIUM 33 DEB

International designator: 1997-051ABJ

Object number (NORAD): 40996

Object ID (CCSDS): 40996

Country: UNITED STATES OF AMERICA (US)

Current information (Y/N): Y

RCS size: SMALL

Orbital parameters

Period: 96.918 minutes

Inclination: 86.3539 deg

SMA: 6989.216 km

Apoapsis: 615.667 km

Periapsis: 606.495 km

RAAN: 76.8928 deg

Eccentricy: 0.0006561

Argument of periapsis: 277.1277 deg

Mean anomaly: 205.9194 deg

Mean motion: 14.85799043 rev/day

Mean motion (dot): 0.0000996 rev/day2

B* drag term: 0.0011419 1/REarth

Two-line elements (TLE)

Creation date: July 3, 2025, 2:26 p.m.

Reference frame: TEME

Reference center: EARTH

Epoch: July 2, 2025, 11:23 a.m. UTC

TLE line 0: 0 IRIDIUM 33 DEB

TLE line 1: 1 40996U 97051ABJ 25183.47464299 .00009960 00000-0 11419-2 0 9996

TLE line 2: 2 40996 86.3539 76.8928 0006561 277.1277 205.9194 14.85799043600551

Live tracking on map

Real-time ground track for satellite IRIDIUM 33 DEB.

In-orbit conjunctions

A list of the most updated potential collisions computed for object IRIDIUM 33 DEB.

Target Orbit TCA Probability of collision Miss distance Type
CZ-6A DEB SSO 2025-01-07 08:20:47 0.0001552373 205.0 (m) DEBRIS
EGYPTSAT 1 SSO 2024-12-19 19:52:28 0.0005231465 385.0 (m) PAYLOAD

Associated space launch

Iridium provides global mobile telecommunications services using a constellation of 66 low earth orbit satellites in a 86.4° inclined orbit. Although 77 satellites were originally envisioned for the system and spawned the name based on the 77th element in the periodic table, the system has been scaled back. Motorola's Satellite Communications Group designed and manufactured the Iridium satellites with Lockheed Martin providing the LM-700A spacecraft buses.

IRIDIUM 33 DEB was lifted into orbit during the mission ‘Proton-K/17S40 | Iridium 27 to 33’, on board a Proton-K/17S40 space rocket.

The launch took place on Sept. 14, 1997, 1:36 a.m. from 81/23 (81L).

For more information about the launch, click the button.

Launch to space Proton-K/17S40 | Iridium 27 to 33
Proton-K/17S40 | Iridium 27 to 33

Agency: N/A

Status: Launch Successful

Launch date: Sept. 14, 1997, 1:36 a.m. UTC

Rocket: Proton-K/17S40

Launch pad: 81/23 (81L)

Location: Baikonur Cosmodrome, Republic of Kazakhstan

...

Latest news about this satellite

There are no fresh news available about this satellite. Check back as we update our databases every day.


Newsletter sign-up

Weekly statistics, charts and insights to help you stay on top of the space industry.